Regional Weather Roundup
Issued by NWS

Home | Current Version | Previous Version | Text Only | Print | Product List | Glossary Off
Versions: 1 2 3 4 5 6 7 8 9 10 11 12 13 14 15 16 17 18 19 20 21 22 23 24 25 26 27 28 29 30 31 32 33 34 35 36 37 38 39 40 41 42 43 44 45 46 47 48 49 50

000
ASUS43 KIND 261009
RWRIN

WEATHER ROUNDUP FOR INDIANA
NATIONAL WEATHER SERVICE INDIANAPOLIS IN
600 AM EDT WED APR 26 2017

NOTE: "FAIR" INDICATES FEW OR NO CLOUDS BELOW 12,000 FEET WITH NO
SIGNIFICANT WEATHER AND/OR OBSTRUCTIONS TO VISIBILITY.

* - STATION DOES NOT REPORT WEATHER SUCH AS PRECIPITATION OR FOG.

+ - STATION NOT QUALITY CONTROLLED BY THE NATIONAL WEATHER SERVICE.
    USE DATA WITH CAUTION...ESPECIALLY DEWPOINT AND RELATIVE
    HUMIDITY OBSERVATIONS.

INZ001>003-010>013-019-020-261100-
NORTHWEST INDIANA

CITY           SKY/WX    TMP DP  RH WIND       PRES   REMARKS
GARY /AIRPORT/ CLOUDY    66  54  63 S10       29.52S
KNOX *+        CLOUDY    63  36  36 S13       29.56S
LA PORTE +     MOCLDY    62  55  78 S7        29.56S
MICHIGAN CITY+ CLOUDY    63  54  72 SE7       29.54F
MONTICELLO +   CLOUDY    64  55  74 S9        29.57R
RENSSELAER +   CLOUDY    64  54  68 SE14G22   29.55F
VALPARAISO     PTCLDY    65  56  72 S12       29.54F

$$

LMZ046-743>745-261100-
SOUTHERN LAKE MICHIGAN

STATION/POSITION TIME  TEMP    WIND        PRES    WAVE
                       AIR SEA DIR/SP/G            HT
                 (UTC) (F)     (DEG/KT/KT) (MB)    (FT)
BURNS HARBOR     0940   66     150/  9/ 17 1000.3F
MICHIGAN CITY    0940   64     150/ 13/ 16   N/A

$$

INZ004-005-014>016-021>024-261100-
NORTH CENTRAL INDIANA

CITY           SKY/WX    TMP DP  RH WIND       PRES   REMARKS
GOSHEN         CLOUDY    62  53  72 S10       29.59F
LOGANSPORT +   CLOUDY    63  54  72 S13       29.60S
PERU/GRISSOM   CLOUDY    61  58  88 S10       29.59F
ROCHESTER +    CLOUDY    64  55  72 S8        29.60S
SOUTH BEND     CLOUDY    62  55  77 S12       29.58F
WARSAW +       CLOUDY    61  54  77 S6        29.60F

$$

INZ006>009-017-018-025>027-261100-
NORTHEAST INDIANA

CITY           SKY/WX    TMP DP  RH WIND       PRES   REMARKS
ANGOLA *+      CLEAR     57  55  94 SE5       29.63F
AUBURN +       CLOUDY    59  54  82 CALM      29.65S
FORT WAYNE     CLOUDY    58  53  84 SE8       29.64S
HUNTINGTON +   PTCLDY    58  55  89 SE8       29.62F
KENDALLVILLE + PTCLDY    58  55  88 S9        29.63F

$$

INZ028-029-035-036-043>045-051>053-261100-
WEST CENTRAL INDIANA

CITY           SKY/WX    TMP DP  RH WIND       PRES   REMARKS
CRAWFORDSVL +  MOCLDY    60  55  85 SE10      29.59S
GREENCASTLE +  PTCLDY    61  54  77 S9        29.62R
LAFAYETTE      MOCLDY    63  56  78 S10G17    29.57R
TERRE HAUTE    CLOUDY    63  55  75 S9        29.58S

$$

INZ030>032-037>040-046>048-054>057-064-065-261100-
CENTRAL INDIANA

CITY           SKY/WX    TMP DP  RH WIND       PRES   REMARKS
CP ATTERBURY + CLEAR     57  54  88 S5        29.66S
FISHERS *+     CLEAR     57  57 100 S7        29.64R
FRANKFORT +    CLOUDY    65  57  76 S7        29.61S
GREENWOOD *+   CLEAR     61  55  79 S9        29.64S
INDIANAPOLIS   PTCLDY    61  55  81 SE12      29.62S
-EAGLE CREEK   PTCLDY    62  55  77 S6        29.62S
KOKOMO +       MOCLDY    61  55  81 S14       29.62S
MARION +       CLOUDY    59  54  82 S9        29.63F
MT COMFORT *+  CLEAR     59  54  82 S8        29.64S
SHELBYVILLE    CLEAR     62  54  74 SE12      29.64S
ZIONSVILLE +   PTCLDY    60  55  83 SE9       29.62F

$$

INZ033-034-041-042-049-050-058-059-261100-
EAST CENTRAL INDIANA

CITY           SKY/WX    TMP DP  RH WIND       PRES   REMARKS
MUNCIE         CLEAR     62  54  74 S7        29.64F
RICHMOND +     CLOUDY    54  54 100 SE9       29.69F

$$

INZ060-061-067>069-081>083-085>088-261100-
SOUTHWEST INDIANA

CITY           SKY/WX    TMP DP  RH WIND       PRES   REMARKS
EVANSVILLE     PTCLDY    62  56  80 S6        29.62S
HUNTINGBURG *+ CLOUDY    62  56  80 SE8       29.65R
WASHINGTON +   PTCLDY   N/A N/A N/A MISG      29.61S

$$

INZ062-063-066-070>080-084-089>092-261100-
SOUTH CENTRAL AND SOUTHEAST INDIANA

CITY           SKY/WX    TMP DP  RH WIND       PRES   REMARKS
BEDFORD +      CLOUDY    59  54  82 S7        29.64S
BLOOMINGTON    CLOUDY    59  54  83 S9        29.63S
MADISON *+     CLEAR     59  54  82 SE3       29.71R
NORTH VERNON + CLEAR     59  54  82 SE7       29.68S
SEYMOUR +      CLEAR     59  55  88 S8        29.66S

$$





USA.gov is the U.S. government's official web portal to all federal, state and local government web resources and services.